Location: Sweet Grass
(48.9965°N, 111.9649°W)
Time: 17:22:03
(UTC+00:00)

DX 1 - Pass Details

Date: 09 April 2023
Orbit: 615 x 625 km, 98.4° (Epoch: 04 June)

Event Time Altitude Azimuth Distance (km) Brightness Sun altitude
Rises 07:36:27 0° 358° (N) 2,900 ? -33.5°
Reaches altitude 10° 07:39:44 10° 331° (NNW) 1,990 ? -33.4°
Enters shadow 07:41:14 13° 311° (NW) 1,808 ? -33.4°
